[[{"header":{"parameterUnit":"m.s-1","parameterCategory":1,"la1":30.2991,"la2":30.254,"lo1":-89.0895,"lo2":-89.0444,"dy":0.0017,"dx":0.0017,"nx":28,"ny":28,"refTime":"2025-04-18T21:00:00:Z","depth":0,"parameterNumber":2,"parameterNumberName":"U-component_of_WINDS"},"data":[0,0,0,0,0,0,0,0,0,0,0,0,0,0,0,0,0,0,0,0,0,0,0,0,0,0,0,0,0,0,0,0,0,0,0,0,0,0,0,0,0,0,0,0,0,0,0,0,0,0,0,0,0,0,0,0,0,0,-3.3039,-3.304,0,-3.3141,-3.3142,-3.3143,-3.3128,-3.3126,-3.3124,-3.3123,-3.3231,-3.3235,-3.324,0,0,0,0,0,0,0,0,0,0,0,0,0,-3.2836,-3.284,-3.3039,-3.304,-3.3041,-3.314,-3.3142,-3.3143,-3.3128,-3.3126,-3.3124,-3.3122,-3.3229,-3.3235,-3.324,0,0,0,0,0,0,0,0,0,0,0,0,0,-3.293,-3.2841,-3.3038,-3.3046,-3.3047,-3.314,-3.3142,-3.3144,-3.3129,-3.3126,-3.3123,-3.3121,-3.3228,-3.3234,-3.3241,-3.3334,0,0,-3.3261,-3.3264,0,0,0,0,0,0,0,0,-3.2924,-3.2937,-3.3043,-3.3045,-3.3047,-3.3119,-3.311,-3.3208,-3.3129,-3.3098,-3.3123,-3.312,-3.3196,-3.3205,-3.323,-3.3339,-3.3344,-3.3262,-3.3266,-3.3269,-3.3271,0,0,0,0,0,0,0,-3.2918,-3.2933,-3.3079,-3.3045,-3.3047,-3.3045,-3.3056,-3.3128,-3.316,-3.31,-3.3099,-3.3112,-3.3197,-3.3224,-3.3232,-3.3346,-3.3262,-3.3268,-3.3272,-3.3275,-3.3538,-3.3541,0,0,0,0,0,0,-3.2909,-3.2927,-3.3076,-3.3082,-3.2978,-3.3051,-3.3063,-3.3098,-3.3159,-3.3166,-3.3114,-3.311,-3.3213,-3.3225,-3.3236,-3.335,-3.3269,-3.3275,-3.3279,-3.3535,-3.3539,-3.3542,0,0,0,0,0,0,-3.2904,-3.2922,-3.3072,-3.3005,-3.3023,-3.3057,-3.3098,-3.3102,-3.3129,-3.3169,-3.3175,-3.3135,-3.3212,-3.3227,-3.331,-3.3354,-3.3278,-3.3284,-3.3532,-3.3537,-3.3541,-3.3578,0,0,0,0,0,0,-3.2899,-3.2921,-3.2955,-3.3005,-3.3027,-3.3142,-3.31,-3.3106,-3.314,-3.3137,-3.3191,-3.3198,-3.3211,-3.33,-3.3317,-3.3362,-3.329,-3.3528,-3.3534,-3.3539,-3.3573,-3.3583,-3.3592,0,0,0,0,0,-3.2891,-3.2962,-3.2957,-3.2975,-3.3071,-3.3145,-3.3157,-3.317,-3.3143,-3.3179,-3.3206,-3.3196,-3.3346,-3.3309,-3.3327,-3.3375,-3.3525,-3.3532,-3.3539,-3.3569,-3.3581,-3.3592,0,0,0,0,0,0,-3.2917,-3.2969,-3.2964,-3.3052,-3.3094,-3.3142,-3.3187,-3.3183,-3.3234,-3.3229,-3.3244,-3.3256,-3.3341,-3.3366,-3.3323,-3.3469,-3.3432,-3.3443,-3.3449,-3.3461,-3.347,-3.3462,-3.3295,0,0,0,0,0,-3.2933,-3.2988,-3.3031,-3.3105,-3.3126,-3.3153,-3.3186,-3.3192,-3.3237,-3.3255,-3.3287,-3.3332,-3.3389,-3.3427,-3.3482,-3.3577,-3.359,-3.3619,-3.3629,-3.3636,-3.3645,-3.3699,-3.3713,-3.3564,-3.3564,-3.3564,0,0,-3.2967,-3.3002,-3.3035,-3.3111,-3.3144,-3.3202,-3.3168,-3.323,-3.3274,-3.3265,-3.3345,-3.3371,-3.3422,-3.3512,-3.3553,-3.3536,-3.3689,-3.3645,-3.3651,-3.3656,-3.3707,-3.3721,-3.3734,-3.3569,-3.3568,-3.3567,0,0,-3.3057,-3.3089,-3.3155,-3.3189,-3.3239,-3.3257,-3.3273,-3.3322,-3.3338,-3.3419,-3.3414,-3.3467,-3.3565,-3.3602,-3.3633,-3.374,-3.3733,-3.3758,-3.3807,-3.3859,-3.387,-3.3881,-3.3919,-3.3933,-3.3767,-3.3767,-3.3767,0,-3.3093,-3.3178,-3.3189,-3.3252,-3.3286,-3.328,-3.3348,-3.3381,-3.3447,-3.3472,-3.3451,-3.3575,-3.3609,-3.3708,-3.3734,-3.376,-3.3779,-3.3751,-3.3867,-3.3878,-3.3888,-3.3925,-3.3939,-3.3769,-3.3769,-3.3769,-3.3768,0,-3.322,-3.3279,-3.3326,-3.3389,-3.3429,-3.3494,-3.3517,-3.3556,-3.356,-3.358,-3.3664,-3.3704,-3.3768,-3.3792,-3.3796,-3.3892,-3.388,-3.3864,-3.3827,-3.3905,-3.3939,-3.3954,-3.3773,-3.3772,-3.3771,-3.3771,0,0,-3.3328,-3.3397,-3.3414,-3.3443,-3.3499,-3.3546,-3.3612,-3.3673,-3.3707,-3.3754,-3.381,-3.3894,-3.3879,-3.3915,-3.3924,-3.397,-3.4052,-3.3948,-3.3949,-3.3966,-3.4161,-3.4173,-3.4189,-3.4048,-3.4051,-3.4053,-3.4157,0,-3.3424,-3.3538,-3.3551,-3.3653,-3.3709,-3.3705,-3.3763,-3.3804,-3.3826,-3.3878,-3.3902,-3.3962,-3.3937,-3.3959,-3.4004,-3.4032,-3.4092,-3.4025,-3.4102,-3.4105,-3.4088,-3.4207,-3.422,-3.4315,-3.4171,-3.4173,-3.4175,0,-3.355,-3.3599,-3.3707,-3.3756,-3.378,-3.3831,-3.3889,-3.3938,-3.3986,-3.3999,-3.404,-3.4043,-3.4113,-3.4074,-3.4171,-3.4126,-3.4158,-3.4177,-3.4181,-3.4188,-3.4144,-3.4218,-3.4346,-3.436,-3.4196,-3.4195,-3.4193,0,-3.3618,-3.3712,-3.3788,-3.3813,-3.3873,-3.3909,-3.3936,-3.3981,-3.4017,-3.4069,-3.4093,-3.4152,-3.4185,-3.4231,-3.4251,-3.4221,-3.4348,-3.431,-3.4361,-3.4361,-3.4387,-3.4385,-3.4523,-3.4409,-3.4409,-3.4409,-3.4408,0,-3.3723,-3.3789,-3.382,-3.3867,-3.3941,-3.3957,-3.4031,-3.4057,-3.4097,-3.4151,-3.4152,-3.4202,-3.4225,-3.428,-3.4297,-3.4375,-3.439,-3.4403,-3.4406,-3.4403,-3.4401,-3.4424,-3.4417,-3.4412,-3.4412,-3.4411,-3.441,0,-3.3812,-3.3834,-3.3918,-3.3967,-3.3981,-3.4034,-3.4077,-3.4124,-3.4145,-3.4213,-3.423,-3.4265,-3.4329,-3.4354,-3.4433,-3.4444,-3.4535,-3.4533,-3.4518,-3.4519,-3.4568,-3.4563,-3.4725,-3.4747,-3.4619,-3.462,-3.4621,0,-3.3877,-3.3927,-3.3982,-3.4017,-3.4045,-3.4102,-3.4139,-3.4157,-3.4196,-3.4255,-3.4295,-3.4359,-3.4411,-3.4515,-3.4548,-3.4609,-3.4609,-3.4661,-3.4618,-3.4613,-3.4609,-3.4606,-3.4611,-3.4669,-3.467,-3.4671,-3.4672,0,-3.399,-3.3999,-3.4052,-3.4109,-3.4153,-3.4199,-3.4244,-3.4273,-3.4299,-3.4343,-3.4408,-3.4448,-3.4529,-3.4593,-3.4656,-3.4685,-3.4684,-3.4686,-3.4701,-3.4697,-3.4686,-3.4693,-3.4539,-3.4682,-3.4681,-3.468,-3.4679,-3.4679,-3.4069,-3.4114,-3.416,-3.4219,-3.4254,-3.4297,-3.4343,-3.437,-3.4425,-3.4491,-3.4499,-3.4569,-3.4618,-3.4702,-3.4734,-3.4791,-3.4777,-3.4799,-3.4804,-3.4809,-3.4813,-3.4677,-3.4803,-3.4802,-3.4802,-3.4802,-3.4802,0,-3.4183,-3.4212,-3.4266,-3.4328,-3.4375,-3.4369,-3.4419,-3.4459,-3.452,-3.4565,-3.4616,-3.4692,-3.4755,-3.4793,-3.4856,-3.4895,-3.4895,-3.4911,-3.4908,-3.4915,-3.4821,-3.4802,-3.4909,-3.4909,-3.4909,-3.4909,-3.4909,-3.4909,-3.4247,-3.4323,-3.4338,-3.4433,-3.4462,-3.453,-3.4559,-3.4599,-3.4634,-3.4719,-3.477,-3.4794,-3.4838,-3.4904,-3.4962,-3.4972,-3.4995,-3.5011,-3.502,-3.4932,-3.4921,-3.4911,-3.4892,-3.5016,-3.5017,-3.5109,-3.511,-3.511]},{"header":{"parameterUnit":"m.s-1","parameterCategory":1,"la1":30.2991,"la2":30.254,"lo1":-89.0895,"lo2":-89.0444,"dy":0.0017,"dx":0.0017,"nx":28,"ny":28,"refTime":"2025-04-18T21:00:00:Z","depth":0,"parameterNumber":3,"parameterNumberName":"V-component_of_WINDS"},"data":[0,0,0,0,0,0,0,0,0,0,0,0,0,0,0,0,0,0,0,0,0,0,0,0,0,0,0,0,0,0,0,0,0,0,0,0,0,0,0,0,0,0,0,0,0,0,0,0,0,0,0,0,0,0,0,0,0,0,3.3572,3.3572,0,3.3529,3.3528,3.3528,3.3518,3.3519,3.3519,3.3519,3.3473,3.3472,3.347,0,0,0,0,0,0,0,0,0,0,0,0,0,3.3647,3.3645,3.3572,3.3572,3.3571,3.3529,3.3528,3.3527,3.3518,3.3519,3.3519,3.352,3.3474,3.3472,3.347,0,0,0,0,0,0,0,0,0,0,0,0,0,3.361,3.3645,3.3572,3.3561,3.356,3.3529,3.3528,3.3527,3.3518,3.3519,3.3519,3.352,3.3475,3.3472,3.347,3.3446,0,0,3.3463,3.3462,0,0,0,0,0,0,0,0,3.3612,3.3607,3.3564,3.3562,3.356,3.3529,3.3538,3.35,3.3518,3.3534,3.3519,3.352,3.3492,3.3488,3.3479,3.3444,3.3442,3.3463,3.3462,3.3461,3.346,0,0,0,0,0,0,0,3.3614,3.3609,3.3555,3.3563,3.3561,3.3559,3.3554,3.353,3.3511,3.3533,3.3532,3.3527,3.3491,3.3481,3.3478,3.3441,3.3463,3.3461,3.346,3.3459,3.3386,3.3386,0,0,0,0,0,0,3.3619,3.3611,3.3556,3.3554,3.3588,3.3557,3.3552,3.3539,3.3511,3.3507,3.3527,3.3527,3.3485,3.348,3.3476,3.3447,3.3461,3.3458,3.3457,3.3387,3.3386,3.3385,0,0,0,0,0,0,3.3621,3.3614,3.3558,3.3582,3.3575,3.3555,3.3541,3.3538,3.3528,3.3506,3.3503,3.352,3.3485,3.3479,3.3454,3.3445,3.3457,3.3455,3.3387,3.3387,3.3386,3.3388,0,0,0,0,0,0,3.3623,3.3615,3.3606,3.3582,3.3574,3.3537,3.354,3.3537,3.3524,3.3524,3.3499,3.3496,3.3485,3.3457,3.3452,3.3442,3.3453,3.3388,3.3387,3.3386,3.3389,3.3387,3.3386,0,0,0,0,0,3.3626,3.3607,3.3605,3.3599,3.3562,3.3536,3.3531,3.352,3.3523,3.3514,3.35,3.3496,3.3447,3.3455,3.3448,3.3438,3.3389,3.3387,3.3386,3.3389,3.3388,3.3386,0,0,0,0,0,0,3.3629,3.3604,3.3601,3.3575,3.3558,3.3535,3.3522,3.3518,3.35,3.35,3.3486,3.3481,3.3456,3.3445,3.3454,3.3414,3.3418,3.3415,3.3423,3.3421,3.342,3.3423,3.3452,0,0,0,0,0,3.3627,3.361,3.3588,3.3567,3.3559,3.3542,3.3531,3.3523,3.3505,3.3498,3.3482,3.3464,3.3445,3.3432,3.3413,3.3387,3.3382,3.3377,3.3376,3.3375,3.3373,3.3359,3.3357,3.3381,3.3381,3.3381,0,0,3.3623,3.3607,3.3596,3.3567,3.3553,3.3535,3.3536,3.3516,3.3503,3.3494,3.347,3.3458,3.3437,3.3412,3.34,3.3401,3.3365,3.3373,3.3373,3.3371,3.3358,3.3355,3.3353,3.3381,3.3381,3.3381,0,0,3.3605,3.3591,3.3572,3.3558,3.3538,3.3527,3.3523,3.35,3.3492,3.3468,3.3462,3.3445,3.3412,3.3398,3.3386,3.3365,3.3361,3.3359,3.3352,3.3339,3.3338,3.3336,3.3329,3.3326,3.3357,3.3357,3.3357,0,3.3601,3.3574,3.3563,3.3544,3.3532,3.3524,3.3506,3.3493,3.3466,3.3458,3.346,3.3419,3.3405,3.3376,3.3371,3.3362,3.3357,3.3361,3.3339,3.3337,3.3335,3.3328,3.3326,3.3357,3.3357,3.3357,3.3357,0,3.3571,3.3552,3.3539,3.3516,3.3502,3.3483,3.3469,3.3457,3.3451,3.344,3.3416,3.3399,3.3376,3.3369,3.3363,3.334,3.3342,3.3342,3.3345,3.3333,3.3326,3.3323,3.3357,3.3357,3.3357,3.3357,0,0,3.3553,3.3525,3.352,3.351,3.3487,3.3472,3.3453,3.3432,3.3422,3.3405,3.3389,3.3362,3.3362,3.3349,3.3341,3.3329,3.3314,3.333,3.333,3.3328,3.329,3.329,3.3287,3.3312,3.3311,3.3311,3.3292,0,3.3533,3.35,3.349,3.3462,3.3445,3.3438,3.3422,3.3406,3.3396,3.338,3.3369,3.335,3.3351,3.3343,3.3331,3.3319,3.3307,3.332,3.3297,3.3296,3.3303,3.3284,3.3284,3.3267,3.3289,3.3288,3.3288,0,3.3505,3.3488,3.3459,3.3439,3.3432,3.3417,3.3398,3.3383,3.3365,3.3358,3.3345,3.3338,3.3319,3.3324,3.3297,3.3306,3.3297,3.3289,3.3288,3.3286,3.3292,3.3281,3.3261,3.3259,3.3284,3.3284,3.3284,0,3.3496,3.3466,3.3444,3.3436,3.3412,3.3403,3.3392,3.3375,3.3364,3.3347,3.3339,3.332,3.331,3.3295,3.3284,3.3288,3.3258,3.3262,3.3252,3.3253,3.3246,3.3247,3.3224,3.3239,3.324,3.324,3.324,0,3.3474,3.3457,3.344,3.3427,3.3408,3.3397,3.3377,3.3367,3.3352,3.3337,3.333,3.3316,3.3302,3.3286,3.3277,3.3257,3.3252,3.3246,3.3244,3.3247,3.3248,3.324,3.3241,3.3239,3.3239,3.3239,3.3239,0,3.3461,3.3449,3.3426,3.3406,3.3401,3.3387,3.3371,3.3358,3.3348,3.3329,3.3324,3.3308,3.3289,3.3277,3.3252,3.3246,3.3225,3.3222,3.3231,3.323,3.3221,3.3222,3.3193,3.3189,3.3207,3.3207,3.3206,0,3.3448,3.3434,3.3414,3.3404,3.3394,3.3377,3.3366,3.3355,3.3343,3.3323,3.3313,3.3294,3.3278,3.3248,3.3234,3.3216,3.3214,3.3205,3.3211,3.3215,3.3214,3.3215,3.3214,3.3204,3.3204,3.3204,3.3204,0,3.3426,3.3422,3.3406,3.3388,3.3375,3.3361,3.3346,3.3338,3.3324,3.3312,3.3293,3.3281,3.3257,3.3238,3.3219,3.3208,3.3204,3.3202,3.3199,3.3202,3.3207,3.3205,3.3229,3.3203,3.3203,3.3203,3.3203,3.3203,3.3413,3.3401,3.3386,3.3368,3.3357,3.3343,3.3331,3.332,3.3304,3.3284,3.3279,3.3259,3.3243,3.3217,3.3206,3.3191,3.3192,3.3187,3.3186,3.3185,3.3185,3.321,3.3187,3.3187,3.3187,3.3187,3.3187,0,3.3392,3.3382,3.3366,3.3347,3.3333,3.3331,3.3315,3.3304,3.3287,3.3273,3.3258,3.3237,3.3219,3.3205,3.3186,3.3177,3.3175,3.3173,3.3173,3.3171,3.3185,3.319,3.3175,3.3175,3.3175,3.3175,3.3175,3.3175,3.3379,3.336,3.3353,3.3328,3.3318,3.3299,3.3291,3.3279,3.3267,3.3244,3.323,3.3221,3.3206,3.3187,3.3171,3.3167,3.3161,3.316,3.3155,3.3169,3.317,3.3171,3.3176,3.3158,3.3158,3.3143,3.3143,3.3143]}]]